Volver al catálogo

STARLINK-32184

ActivoComunicacionesVLEO
NORAD 60942·PAYLOAD·🇺🇸 United States

Lanzado Aug 31, 2024 desde Vandenberg Space Force Base

Loading…

Próximos Pases (próximas 24 horas)

TLE

ActualizadoSource: CelesTrak SupGP

Época: Sep 14, 2026, 20:39 UTC

1 60942C 24155U   26257.86090278 -.00020449  00000+0 -60460-3 0  2576
2 60942  53.1580 327.7788 0001160  88.7168 108.7163 15.34378399    12

Sigue STARLINK-32184 en tiempo real con AllMySat

Download on the App Store